GFSWCAN_prec_cthk_054.txt.gz
RH
90 80 82 88 93 96 97 97 98 98 96 95 94 90 78 71 70 73 89 80 74 62 62 61 56 47 42 35 35 31 34 33 39 50 63 72 80 80 72 66 63 61 70 71 69 66 56 44 50 47 34 28 31 35
98 98 98 98 98 98 98 98 97 94 89 90 83 80 80 70 66 71 83 93 74 64 62 68 63 61 56 40 28 32 29 33 29 45 53 62 70 76 70 74 66 66 56 60 58 52 44 49 51 46 30 31 36 38
98 97 98 98 98 98 97 93 89 88 84 83 85 82 78 74 70 58 73 91 84 67 65 66 64 81 66 50 36 35 37 45 42 31 44 51 64 66 72 73 71 65 61 58 58 52 53 58 56 45 33 35 38 41
96 97 97 97 97 94 92 92 88 85 81 78 73 77 78 78 65 61 82 83 85 70 74 72 63 53 64 61 50 43 38 33 46 58 51 50 55 62 72 74 73 66 66 66 66 65 59 54 55 38 34 36 40 41
90 88 85 82 82 81 84 83 78 74 71 68 72 73 68 61 50 70 84 95 84 73 65 67 76 78 58 47 49 44 41 44 55 60 61 65 55 63 75 76 69 66 66 67 64 64 65 58 46 36 34 36 38 37
76 73 73 71 70 65 57 57 58 61 70 76 76 70 78 72 89 93 99 98 86 68 67 57 79 79 88 79 69 58 54 47 49 69 65 57 63 70 81 73 63 57 57 64 65 65 68 53 44 38 39 40 41 42
72 74 78 79 75 67 63 63 63 64 66 70 82 87 92 97 93 99 96 89 77 63 73 58 71 76 88 75 74 71 74 63 50 56 64 72 67 67 68 64 62 61 65 62 62 61 66 60 46 46 45 45 47 48
71 79 84 84 84 89 90 90 88 88 86 74 67 79 91 92 99 98 83 76 64 67 78 71 62 49 54 63 81 95 88 78 66 65 65 64 68 67 64 58 61 62 62 62 64 55 53 53 52 51 50 50 53 56
68 76 83 88 89 92 96 92 91 88 85 93 96 97 92 88 88 90 80 66 70 73 78 78 87 79 71 84 91 96 95 90 82 75 71 71 69 66 58 60 60 74 70 61 62 68 67 64 63 60 60 61 63 68
59 65 71 78 75 73 75 77 76 71 75 82 89 92 94 94 82 68 67 70 65 60 66 69 72 72 69 76 83 89 96 95 92 86 89 84 73 67 70 71 69 75 77 72 71 75 74 72 70 70 74 76 78 82
46 50 54 55 51 47 48 52 56 59 63 66 65 71 65 61 69 98 82 80 74 65 62 62 82 81 72 74 86 88 90 98 95 89 93 85 79 74 75 80 83 84 88 85 83 84 83 80 78 82 86 88 92 92
59 56 47 51 54 57 59 62 67 74 80 76 75 74 79 83 89 83 69 66 62 61 67 78 83 67 63 77 90 91 91 92 97 93 94 95 87 88 96 94 95 95 95 91 91 91 91 90 90 91 92 95 96 94
71 66 63 53 62 69 74 78 80 86 90 99 93 84 83 79 74 74 70 68 66 61 60 65 75 82 88 86 96 99 98 93 94 98 97 89 87 83 87 91 90 97 94 92 93 91 92 97 98 96 93 94 93 93
84 79 76 69 71 76 79 85 90 94 89 86 95 97 98 97 93 85 82 85 86 85 87 90 98 99 97 98 98 98 98 96 94 94 89 86 80 81 81 82 86 89 90 95 96 96 97 98 97 94 90 93 91 85
95 93 90 86 85 88 91 95 97 98 98 98 98 98 95 92 96 96 97 97 98 96 96 97 96 95 95 96 96 94 93 92 91 88 84 82 82 86 90 94 95 96 98 98 98 96 94 93 94 96 93 86 89 89
98 98 98 98 98 98 98 98 98 98 98 98 97 98 98 98 96 93 91 92 91 91 93 96 98 98 97 93 90 89 88 89 90 89 89 88 90 93 97 99 99 98 98 97 95 96 97 97 95 90 90 91 91 91
98 98 98 98 96 96 96 96 98 96 94 95 97 98 98 97 97 95 93 93 94 96 96 95 95 97 98 97 97 98 98 97 96 94 94 95 98 97 96 95 95 96 97 97 97 97 95 95 95 95 96 96 91 88
97 98 99 99 98 98 98 98 97 95 97 97 97 98 98 98 98 98 98 99 99 98 98 98 97 97 97 96 97 97 97 97 98 98 98 98 98 98 98 98 98 98 97 98 98 97 97 97 97 97 95 92 89 87
86 87 91 95 95 94 96 96 94 96 97 97 98 98 98 98 97 97 98 98 98 97 97 97 96 97 97 97 97 97 97 97 97 97 97 97 97 97 98 98 97 97 97 97 97 97 97 97 96 97 94 92 90 90
63 82 84 83 81 82 86 87 89 93 97 97 97 96 96 96 97 97 96 97 96 95 95 95 96 97 97 97 97 98 98 98 97 97 97 97 98 98 98 98 97 98 98 97 97 97 98 98 97 97 96 95 94 92
36 50 67 76 79 81 88 92 92 94 95 93 93 93 95 93 92 93 93 93 93 96 97 97 97 97 97 97 98 98 98 98 98 98 98 97 98 98 97 97 97 97 97 97 98 98 98 98 98 98 98 97 95 92
16 22 26 35 44 49 65 77 80 81 90 95 95 95 95 92 91 88 88 91 96 97 97 97 97 97 97 97 97 97 97 98 98 98 98 97 97 97 97 97 97 97 97 97 97 97 97 97 96 94 93 92 92 92
6 7 11 17 24 35 46 51 54 58 65 70 71 77 81 82 84 85 92 95 97 98 98 97 98 98 98 98 98 97 98 98 97 97 98 97 97 97 97 97 97 97 97 97 97 96 93 92 91 91 90 89 87 84
9 12 16 22 27 38 40 45 47 50 51 56 60 63 64 61 58 64 77 85 93 97 97 97 97 97 97 97 97 97 97 97 97 97 97 97 97 97 97 97 97 95 93 89 87 86 85 83 81 80 78 77 74 71
16 27 24 31 30 32 38 44 48 49 54 57 60 63 64 58 63 66 71 74 76 79 83 88 94 97 97 97 97 97 97 97 96 96 97 96 95 92 87 83 81 79 76 72 69 66 64 61 59 57 55 55 55 56
32 38 38 40 43 42 45 48 50 51 51 51 56 56 51 54 60 67 69 71 73 76 78 79 80 83 84 84 85 83 83 81 78 73 73 71 67 63 58 54 50 47 45 44 43 44 45 46 47 48 50 50 50 49
42 44 43 45 46 45 47 47 48 51 55 58 60 61 59 65 68 69 72 74 74 75 75 75 75 74 74 73 71 68 64 59 53 49 46 44 42 41 41 40 41 41 40 39 37 36 35 34 34 35 38 41 44 47
48 46 47 46 45 45 48 50 52 55 58 60 61 66 67 69 72 75 77 79 79 78 75 71 66 63 61 57 53 47 44 44 43 42 41 39 38 36 34 32 29 28 27 29 31 34 36 38 39 40 41 42 44 48
47 43 37 39 35 36 39 40 41 41 44 46 47 50 52 55 60 63 64 65 65 65 64 61 57 53 48 45 45 44 42 41 39 36 34 30 26 25 25 28 30 31 32 32 31 30 31 33 35 38 40 42 46 49
35 32 32 35 36 40 41 40 38 37 37 38 39 45 48 52 55 58 60 61 61 59 58 56 56 53 49 47 46 42 38 33 30 26 26 28 30 31 32 31 29 28 27 27 28 30 31 32 33 36 40 44 48 54
36 31 32 36 41 44 43 41 40 40 39 40 43 47 51 54 56 58 58 58 59 60 61 59 57 54 49 43 37 31 28 28 29 31 32 32 31 30 28 27 27 28 29 29 29 28 29 31 33 36 40 43 47 52
33 33 35 41 47 48 51 53 51 50 52 53 55 56 59 61 63 64 66 67 67 65 61 55 48 39 34 28 29 30 31 32 33 32 31 29 28 27 28 28 29 30 30 28 28 29 31 33 36 39 43 46 48 53
38 39 41 46 50 52 55 56 55 55 56 59 61 64 65 64 64 64 64 63 60 53 43 31 27 27 30 32 33 34 34 33 32 30 28 27 27 28 29 29 30 29 28 28 29 30 32 35 38 41 44 48 51 54

GFSWCAN_prec_cthk_057.txt.gz
RH
85 85 91 91 90 88 86 80 87 98 98 99 98 98 96 88 96 94 86 79 72 81 84 76 62 50 43 41 35 34 32 35 55 60 63 54 63 56 65 81 74 62 67 66 65 64 54 47 47 45 38 40 44 38
97 94 94 97 96 96 96 98 99 98 98 98 98 98 93 91 95 91 86 81 89 87 88 81 81 65 45 34 28 29 25 24 27 37 50 58 58 59 55 55 70 69 57 58 55 51 49 48 45 41 38 50 50 40
97 98 98 98 98 98 98 98 98 99 98 98 96 95 98 91 94 89 79 82 81 95 78 74 77 80 69 49 32 27 25 34 31 25 32 34 48 50 61 57 67 71 67 65 62 54 54 51 48 49 45 49 48 39
97 98 99 95 96 95 97 98 98 98 98 98 97 94 93 90 85 80 78 83 82 95 78 89 79 70 72 61 46 33 31 41 50 43 42 47 49 40 49 45 49 58 65 68 65 62 61 59 59 60 57 55 48 37
95 96 96 96 96 97 96 96 96 97 96 96 92 93 88 82 78 77 78 86 92 97 82 67 83 82 75 67 62 52 40 40 44 50 55 56 49 49 46 45 48 48 53 61 59 61 64 59 61 62 63 61 49 37
76 80 85 91 92 91 88 87 88 89 87 84 84 87 85 79 71 69 78 78 79 90 85 88 71 63 73 71 67 62 52 46 50 51 50 49 56 59 61 52 40 42 48 51 60 62 59 60 62 62 64 61 47 41
59 57 57 61 77 83 81 80 78 75 74 80 84 84 79 74 65 60 59 64 72 83 96 90 95 76 73 61 53 56 56 60 55 49 51 57 55 61 60 56 52 44 40 54 59 62 61 60 60 57 55 57 51 48
68 65 60 55 53 53 54 55 58 61 65 61 61 65 64 66 62 56 55 68 80 86 94 89 95 89 89 93 79 69 63 64 65 65 61 48 56 60 61 49 45 49 55 58 64 61 60 60 61 60 54 55 52 50
77 83 85 79 73 69 68 69 70 78 78 77 76 76 81 82 84 83 88 91 89 98 92 85 96 97 80 87 93 83 78 81 74 74 73 63 56 56 45 45 55 58 55 53 56 59 62 61 66 65 61 64 59 60
78 83 90 89 87 86 90 88 79 78 82 82 83 94 97 96 96 91 94 98 94 95 96 70 81 92 90 80 76 79 96 99 99 92 87 77 60 52 51 52 53 52 50 51 55 60 65 68 69 70 76 78 79 78
68 69 74 81 83 86 86 78 83 89 93 88 85 91 84 86 91 89 85 90 89 89 71 56 51 59 63 62 59 69 91 97 94 90 91 79 66 62 60 58 58 60 64 66 67 69 70 71 77 83 86 86 85 85
66 68 65 73 80 87 93 88 89 89 96 94 81 73 72 81 89 96 83 79 65 65 76 76 65 61 62 66 65 72 81 90 87 85 86 82 78 79 78 78 81 80 79 79 78 77 82 86 89 91 93 93 96 97
65 68 69 66 71 80 88 91 79 80 90 81 79 83 90 92 98 93 72 62 58 53 56 60 71 89 81 73 70 74 84 90 88 88 87 86 86 87 86 84 89 93 96 98 97 97 97 97 98 98 98 98 98 98
68 70 75 77 75 77 81 86 89 96 93 96 96 97 96 89 85 78 65 62 65 55 53 56 71 90 86 77 86 93 96 96 94 94 93 93 95 94 92 93 89 89 91 96 98 95 96 97 97 98 97 98 97 96
74 76 77 79 80 83 85 90 89 96 98 98 98 97 94 84 79 73 69 64 64 65 65 70 72 78 87 98 98 98 98 97 97 96 95 95 95 92 91 92 93 93 94 93 93 94 95 98 98 97 97 97 96 90
87 88 87 87 87 92 96 97 98 98 98 97 96 97 97 97 96 97 95 96 98 98 97 95 97 98 98 97 96 97 97 97 94 94 93 91 90 90 90 92 94 96 96 96 97 97 97 98 97 97 93 90 94 97
97 96 94 95 97 97 97 98 97 97 97 97 97 97 97 97 97 98 98 98 98 98 98 98 97 97 98 97 96 95 95 96 97 96 97 98 98 98 98 98 98 98 98 97 97 97 97 97 95 95 96 96 96 97
98 98 98 98 97 98 98 98 97 96 96 97 97 98 98 97 98 97 97 97 97 96 95 95 95 96 97 96 96 97 97 97 97 96 96 97 97 98 98 98 98 98 96 96 96 97 97 97 97 97 97 97 97 96
98 98 98 98 98 96 97 97 96 96 97 97 96 97 97 98 98 98 98 98 98 96 94 96 95 95 96 96 96 97 97 97 97 97 97 97 97 97 97 97 97 97 98 97 97 97 97 97 97 97 97 97 97 95
97 98 98 96 94 90 93 95 95 95 97 97 97 97 96 96 97 97 96 96 96 94 95 95 96 97 97 97 97 97 97 97 97 97 97 97 97 97 97 97 97 97 97 97 97 97 97 97 97 98 98 98 97 97
81 90 93 92 88 88 91 93 93 95 96 95 92 90 91 90 91 92 91 90 90 96 96 97 97 97 97 97 97 97 97 97 97 97 97 97 97 97 97 97 97 97 97 97 97 97 97 97 97 97 98 98 98 98
37 42 42 44 49 54 61 67 68 71 75 80 85 86 85 82 81 81 83 85 93 97 97 97 97 97 97 97 97 97 97 98 97 97 97 97 97 97 97 97 97 97 97 97 97 97 97 97 98 98 98 96 95 93
17 19 18 22 29 38 45 46 48 52 57 58 57 57 56 57 56 58 68 76 85 91 96 98 98 98 97 98 98 98 98 98 97 97 97 97 97 97 97 97 97 97 97 97 97 97 95 94 90 86 83 81 78 73
10 13 17 23 30 41 43 47 46 48 50 54 55 59 59 55 51 53 61 64 68 72 79 88 96 98 98 98 97 98 98 98 97 97 98 98 97 97 97 96 95 94 91 87 81 75 70 65 59 53 48 46 44 44
17 27 24 31 31 35 42 46 48 49 54 54 54 57 57 52 58 63 66 69 70 72 75 77 80 87 94 98 98 98 98 98 97 96 95 93 90 86 82 77 71 62 56 49 44 41 38 36 34 32 30 29 28 29
32 37 37 40 40 40 43 46 50 51 50 49 52 52 48 50 56 63 65 70 75 78 79 82 83 85 87 87 86 86 87 86 82 78 72 64 57 50 45 42 39 37 33 30 26 23 22 23 25 27 29 31 31 31
40 41 42 42 43 41 45 45 46 47 52 55 56 57 53 59 60 62 66 70 74 75 76 77 76 76 74 71 67 60 53 48 45 43 41 39 37 33 29 25 22 21 21 23 25 26 27 26 25 25 26 27 29 30
44 43 42 41 40 41 44 46 47 50 52 54 53 58 57 59 63 67 71 75 78 79 79 78 76 71 62 53 49 48 47 44 39 35 31 26 22 20 21 23 25 26 27 26 24 23 23 23 23 24 24 26 29 32
39 35 31 34 33 34 37 38 38 38 39 40 41 45 48 49 54 60 64 66 66 66 65 62 56 51 48 47 45 42 37 32 28 24 21 22 25 26 28 28 27 25 23 23 24 24 22 22 23 25 27 29 31 33
32 31 31 34 34 37 37 35 35 35 36 37 38 42 46 51 58 61 62 63 62 61 59 57 55 53 51 47 41 35 28 24 25 27 29 30 31 29 27 24 23 23 24 24 22 22 23 24 25 27 29 31 34 37
32 28 32 36 40 40 38 38 38 40 39 41 43 47 50 54 57 59 61 61 61 62 62 62 59 53 45 38 31 28 30 31 32 33 32 29 26 25 24 24 24 25 24 22 22 23 24 25 26 28 31 34 37 40
32 32 35 40 43 43 45 47 47 47 48 48 50 51 56 59 62 63 66 67 67 66 62 56 46 38 33 30 31 33 33 34 32 30 28 26 25 25 25 25 26 26 25 25 26 27 28 29 30 31 33 36 39 43
38 38 38 42 46 49 51 51 52 53 52 53 55 59 63 64 63 63 63 63 60 54 43 31 26 28 31 33 35 34 33 32 30 28 26 25 25 26 27 27 28 29 29 29 29 30 31 32 33 35 36 38 40 43

GFSWCAN_prec_cthk_063.txt.gz
RH
89 82 82 85 96 91 94 97 96 85 92 93 96 81 83 93 97 98 93 90 92 91 86 88 77 67 64 66 65 72 75 72 63 55 48 46 54 35 42 56 73 72 74 78 71 74 66 42 41 40 36 43 44 43
88 85 86 93 96 87 97 93 96 81 89 96 84 80 85 92 97 99 99 93 90 92 95 93 84 77 70 62 63 73 83 63 54 54 40 44 63 56 49 56 69 84 71 71 64 59 51 47 45 46 50 52 50 46
91 92 87 89 96 81 82 86 85 87 92 91 78 84 87 97 98 98 97 94 91 90 97 90 78 73 80 73 76 63 78 65 59 49 46 45 54 49 55 41 38 55 68 70 70 60 60 56 49 48 51 54 54 51
96 98 89 82 87 96 96 95 94 94 93 88 89 86 89 98 98 98 95 95 94 98 96 92 79 65 71 73 81 62 67 79 72 60 54 47 38 35 50 44 34 30 41 48 50 50 53 55 51 57 58 60 58 56
95 96 98 97 96 93 95 94 94 94 96 97 98 98 98 98 98 97 97 96 93 89 88 86 80 72 75 76 87 82 55 75 66 63 54 44 28 25 38 39 39 33 36 46 45 39 42 46 53 64 65 64 62 60
96 97 97 97 94 96 97 98 99 98 98 98 98 97 98 98 97 97 98 98 95 94 76 71 74 88 81 80 84 81 71 67 66 58 48 30 24 36 47 43 37 33 32 34 38 46 48 51 52 54 60 64 64 63
93 95 95 96 96 96 97 98 98 98 98 98 98 98 99 98 99 96 92 87 88 81 72 67 72 79 83 87 91 83 77 62 70 74 70 55 42 38 45 43 23 26 30 31 38 41 40 41 46 47 53 50 51 55
81 88 94 96 97 96 96 96 95 95 98 97 97 97 98 98 97 91 84 81 72 69 62 64 70 82 85 83 96 87 79 74 69 69 65 59 58 58 57 31 22 24 27 33 38 40 40 36 35 37 40 44 49 55
69 72 82 92 94 97 98 97 96 98 97 97 98 98 96 96 95 88 82 78 71 66 58 57 59 80 82 85 91 90 90 85 67 52 52 56 52 60 49 28 29 33 35 35 35 37 41 45 47 49 51 53 50 52
52 55 59 74 90 96 97 96 95 96 97 97 96 95 94 93 78 70 70 67 61 52 55 57 63 81 77 77 95 96 96 96 84 71 66 67 53 50 53 46 41 43 43 45 42 43 45 47 52 54 55 56 56 56
65 62 64 60 63 74 84 86 84 83 83 80 78 79 71 64 64 68 62 57 58 59 53 62 71 78 79 86 84 94 87 88 89 81 69 66 57 61 58 54 50 51 55 58 59 49 46 49 54 56 60 63 63 63
74 69 68 67 63 64 65 70 69 70 64 65 69 62 54 62 68 73 65 64 67 58 60 75 81 82 91 94 92 88 93 89 89 76 82 83 85 85 93 85 76 77 76 74 70 66 61 59 63 68 69 70 72 75
62 57 64 65 64 64 63 66 67 71 66 66 76 73 85 91 90 85 76 73 73 73 75 72 83 88 95 98 98 98 97 92 88 91 89 86 92 94 94 91 89 89 90 90 87 81 80 83 86 89 88 90 90 92
62 54 60 64 69 75 77 82 84 84 82 86 86 87 92 85 84 85 84 82 77 73 73 82 83 89 98 97 89 87 89 93 95 93 87 87 88 90 91 92 94 94 93 92 93 93 94 93 92 93 93 93 95 96
67 65 63 62 63 69 77 78 77 76 79 84 84 85 89 91 91 90 92 85 75 80 78 79 88 92 97 95 88 98 98 94 89 85 84 85 87 90 91 92 91 92 92 93 94 96 95 95 97 97 97 97 97 96
68 72 77 78 73 73 73 68 70 74 79 85 80 85 87 88 91 86 83 77 78 87 94 96 97 98 95 91 87 89 87 88 89 87 90 93 95 95 94 93 93 93 93 95 95 95 95 96 96 94 96 96 97 96
74 73 72 76 79 77 73 70 73 80 86 91 91 85 84 77 75 74 79 81 79 78 74 77 85 89 85 82 85 93 95 93 95 95 93 95 96 95 95 95 95 94 94 94 94 95 96 96 96 96 97 96 97 97
87 88 87 87 89 88 84 86 91 94 96 97 96 97 95 87 77 70 67 70 71 75 78 80 79 79 81 84 88 91 92 97 98 98 98 98 97 97 97 96 95 95 96 97 97 97 97 97 96 97 97 97 97 96
98 97 97 96 97 95 95 96 95 95 96 97 97 97 97 97 96 91 85 84 85 84 84 94 95 95 94 91 96 97 97 97 97 97 97 97 97 97 97 97 97 97 97 97 97 97 97 97 97 97 97 98 97 97
98 98 97 97 95 96 96 96 94 95 96 97 97 97 96 97 97 97 97 97 97 96 96 96 96 97 96 97 97 97 97 97 97 97 97 97 97 97 97 97 97 97 97 97 97 97 97 98 98 98 97 96 95 95
98 97 96 90 92 89 93 94 92 90 89 87 82 76 77 78 78 78 76 82 86 92 95 97 97 97 96 96 96 97 97 97 97 97 97 97 97 97 97 97 97 97 97 97 98 98 98 97 97 96 95 94 93 89
71 59 53 53 49 48 54 55 54 55 55 51 49 47 50 52 54 55 58 56 60 68 74 79 82 87 91 94 96 97 97 97 97 97 97 97 98 98 98 97 97 97 98 98 98 97 96 94 92 88 83 75 66 54
37 36 34 34 36 40 45 48 49 49 50 48 44 42 43 43 43 42 44 47 53 56 59 63 64 65 67 71 76 80 86 94 97 98 98 98 98 98 98 98 98 98 96 94 90 85 76 68 59 56 50 45 40 36
14 18 28 36 39 43 43 45 45 46 47 44 42 45 45 45 46 44 48 53 58 60 62 63 64 66 70 73 74 76 77 82 87 87 91 97 98 97 96 93 89 83 77 69 63 57 52 48 45 40 37 33 30 26
20 28 29 34 37 38 42 44 44 43 44 43 43 44 46 45 45 47 49 56 61 63 65 67 71 76 76 76 79 83 87 87 87 88 90 91 89 82 77 66 56 52 52 48 46 43 40 36 32 27 24 22 21 22
31 34 34 34 36 36 39 40 40 42 41 42 44 43 44 43 45 47 50 56 61 65 68 70 75 77 80 87 88 90 93 91 88 82 74 68 62 56 51 48 46 43 42 40 36 32 28 25 24 23 22 22 22 23
36 37 37 36 36 36 38 40 40 40 42 45 45 45 44 46 47 50 55 58 63 67 69 71 74 76 76 76 77 74 69 64 54 46 39 36 35 34 35 35 30 29 27 27 25 25 22 23 22 22 23 24 25 26
39 38 36 37 35 35 36 35 36 38 39 40 40 42 42 44 46 51 54 61 66 71 74 76 77 79 79 78 72 60 46 36 31 32 34 30 27 26 26 24 22 22 21 19 17 16 16 17 18 19 20 26 25 29
38 33 27 28 29 31 32 32 32 33 33 33 33 34 37 39 43 48 56 63 69 71 75 76 75 73 63 53 43 32 26 29 30 31 34 34 35 30 25 24 24 22 21 21 19 18 18 19 20 22 24 25 30 31
33 33 27 29 33 35 36 36 36 34 34 34 34 38 41 45 51 57 60 64 68 69 68 66 62 59 54 46 35 28 27 28 29 37 38 38 35 28 25 24 23 22 20 20 20 22 22 25 26 27 27 28 29 31
33 33 33 36 37 39 38 35 35 35 36 40 41 42 46 50 54 58 62 64 64 64 64 63 62 56 46 37 38 39 37 33 33 33 32 29 26 24 24 24 23 23 22 22 24 26 26 27 29 28 30 30 31 33
35 38 36 38 40 40 40 41 40 41 41 41 43 44 48 54 57 59 60 63 66 67 66 62 53 42 33 31 33 33 33 34 33 30 27 26 25 24 25 25 25 25 26 27 28 27 27 28 29 30 31 32 33 35
42 37 34 38 41 42 41 41 40 42 43 44 46 49 53 55 57 57 57 57 58 55 49 39 27 24 28 31 33 34 33 31 30 28 26 26 25 25 26 26 27 30 31 30 29 29 29 30 31 33 34 35 37 39

GFSWCAN_prec_cthk_069.txt.gz
RH
88 96 98 90 91 91 88 90 90 91 98 92 87 87 88 86 86 93 94 95 99 93 84 76 79 77 75 76 66 64 73 57 64 68 67 69 69 67 76 69 67 64 73 83 79 82 82 60 52 52 50 43 41 41
95 97 98 95 96 88 89 93 93 90 95 98 95 97 96 99 95 98 98 95 98 97 88 77 78 77 74 75 72 68 57 50 56 65 94 68 65 54 59 74 61 67 60 65 72 73 66 61 68 61 55 52 51 46
96 98 97 94 88 84 94 96 93 93 99 98 99 99 97 98 98 97 96 97 99 94 88 85 74 75 77 77 74 79 61 54 57 53 75 79 78 69 66 58 51 61 59 71 73 71 75 69 70 74 64 63 62 59
96 98 98 91 90 87 90 97 96 92 94 96 99 97 97 96 99 98 97 98 97 98 90 80 75 70 74 78 79 73 65 49 56 74 87 95 81 61 64 51 48 46 50 58 70 70 80 77 88 76 65 65 62 61
97 98 99 94 94 94 87 92 97 96 93 92 94 96 96 97 98 97 96 98 90 92 81 78 81 84 96 86 82 67 59 60 66 79 83 97 80 69 57 51 41 33 37 55 71 69 70 61 65 60 65 72 67 62
98 98 97 93 90 97 97 96 97 96 97 98 98 98 99 96 97 98 99 99 97 96 83 88 86 85 83 78 69 63 59 63 77 80 89 91 80 71 66 53 35 32 35 42 49 50 53 57 58 57 53 51 50 54
98 98 98 96 92 84 87 89 90 91 95 97 98 97 96 95 88 92 83 96 96 84 86 97 90 83 81 74 68 62 63 69 79 87 84 80 90 81 82 61 40 37 33 41 47 48 45 45 49 50 46 49 56 62
98 98 97 98 96 91 86 86 89 94 97 98 98 98 99 97 91 89 90 85 86 88 92 90 94 89 80 75 70 64 64 68 73 89 95 95 93 91 84 61 49 44 35 34 38 43 44 48 50 48 46 47 50 49
98 98 97 98 99 99 99 98 93 93 97 98 99 98 96 95 94 93 93 93 97 90 82 80 89 94 84 75 69 72 77 80 73 87 86 95 91 97 92 75 67 59 53 44 40 41 44 46 49 49 43 39 46 47
98 98 98 98 98 99 99 98 97 98 98 96 94 92 95 96 96 96 97 94 89 81 78 81 74 85 83 87 83 91 85 77 78 87 89 97 99 97 94 95 90 73 60 53 45 44 44 44 46 47 46 46 47 52
98 98 99 98 98 98 99 98 95 95 92 89 88 92 95 96 87 84 90 86 82 78 74 70 67 65 73 83 89 92 94 85 82 82 85 90 98 97 98 96 87 88 83 73 63 58 54 52 52 53 54 58 57 57
94 98 97 95 95 94 92 90 89 88 86 87 86 88 84 83 81 81 89 82 75 81 77 71 63 59 64 76 89 98 98 94 77 77 77 89 91 89 89 91 89 85 79 71 60 57 57 60 64 63 60 60 62 64
82 91 93 91 90 88 85 83 85 84 82 81 80 82 85 86 89 86 82 83 80 74 81 76 72 61 60 76 83 90 93 90 90 98 92 89 83 76 78 86 83 71 65 63 64 65 65 67 66 66 71 76 77 80
60 64 67 69 73 72 71 65 73 77 72 80 85 87 86 90 92 89 80 72 77 84 87 84 77 72 70 80 82 87 92 91 98 96 96 95 86 83 78 78 74 72 72 83 81 82 83 83 82 78 83 88 89 90
58 63 69 70 68 61 63 70 66 64 65 70 71 80 82 86 84 79 78 77 76 78 82 87 81 95 89 90 91 91 93 94 93 93 97 97 95 86 81 81 80 85 96 97 98 97 96 96 97 95 98 98 97 97
70 71 76 74 73 72 73 69 64 61 63 67 77 84 78 76 78 75 75 75 73 73 75 94 99 96 94 88 89 93 95 91 90 96 98 97 97 94 86 94 97 97 97 97 97 97 97 97 97 97 97 97 97 97
77 72 70 64 66 66 65 66 66 68 77 88 91 84 83 77 74 73 72 77 73 72 82 96 94 97 96 95 96 97 97 96 97 97 96 94 92 94 95 94 97 97 96 97 97 97 97 97 97 97 96 97 97 96
80 79 86 87 82 74 67 66 74 79 90 95 89 89 90 86 81 80 78 77 82 89 94 90 86 89 93 92 92 91 92 95 96 97 97 96 96 96 97 97 97 97 96 97 97 97 97 97 97 97 97 97 97 97
90 89 95 92 86 88 87 89 84 90 92 92 89 84 84 85 85 82 83 88 89 86 84 81 80 83 86 85 85 90 92 91 95 97 97 97 97 97 97 96 97 97 97 97 97 97 97 97 97 97 97 97 97 97
94 93 93 87 85 87 92 95 91 92 93 92 92 91 89 87 84 85 82 80 77 75 75 77 85 92 94 95 95 95 96 96 96 96 97 97 97 97 97 97 97 97 97 97 97 97 97 97 97 97 96 96 95 95
91 89 85 82 81 83 87 87 84 84 86 89 88 88 88 87 89 88 83 81 82 84 82 82 80 80 80 81 81 83 85 85 85 88 91 92 93 93 93 94 96 97 97 97 97 97 97 97 97 97 94 87 80 72
73 60 51 46 40 39 45 48 48 49 51 55 57 56 58 60 58 56 60 65 64 67 67 67 67 66 66 65 67 69 72 74 75 75 76 78 81 84 87 90 92 92 91 89 88 88 87 85 81 74 66 60 56 53
42 34 32 30 31 36 42 42 40 43 47 45 42 44 45 44 42 41 46 51 54 57 57 60 62 65 66 67 69 71 74 75 75 76 78 80 83 86 86 87 87 87 86 83 77 71 66 63 58 56 55 51 46 42
24 26 31 34 37 41 39 39 39 38 37 39 40 43 44 43 40 42 50 54 57 58 61 63 64 66 68 70 73 75 76 78 82 85 87 87 88 89 90 88 83 78 72 68 65 61 56 52 48 45 42 40 37 34
18 30 32 37 38 39 43 40 40 38 42 41 41 44 45 39 43 49 51 54 57 59 61 64 65 66 69 72 75 76 77 81 85 87 88 90 88 84 74 69 69 67 62 57 54 50 47 44 39 33 29 28 28 27
31 32 36 37 39 40 40 41 41 41 42 44 46 43 42 43 46 50 53 56 57 59 64 66 67 68 71 75 77 77 79 77 75 75 72 70 69 68 64 56 51 48 48 45 42 36 31 29 27 24 21 21 22 23
36 38 38 39 40 35 39 38 36 39 44 46 45 44 43 45 50 48 47 52 54 58 62 65 67 70 72 72 69 67 62 58 53 51 48 46 43 41 39 35 33 33 30 27 25 22 21 20 21 22 21 20 21 23
36 37 38 35 33 32 33 34 36 39 40 40 40 39 42 44 43 41 43 47 51 56 61 66 68 70 73 76 74 69 64 61 57 52 48 42 36 33 32 29 27 26 23 21 20 20 20 20 19 20 21 24 28 29
34 28 25 29 28 31 35 37 37 36 37 38 38 37 37 39 40 41 45 49 55 58 64 67 68 70 71 67 59 54 50 42 38 37 37 38 37 32 30 29 28 26 23 22 21 21 20 21 22 23 25 25 25 27
35 28 27 32 36 39 39 39 40 37 32 32 32 37 39 42 44 45 49 55 59 61 64 66 68 69 67 56 42 35 33 35 36 37 41 41 38 33 32 29 27 25 23 22 21 21 23 24 27 28 27 26 27 29
34 29 30 35 39 42 42 40 39 37 36 37 37 36 39 42 45 48 52 56 59 61 63 64 64 63 53 48 43 37 36 33 33 34 35 34 32 30 27 25 25 24 23 23 23 24 26 27 27 27 28 29 30 32
35 32 32 39 45 46 46 45 44 42 42 39 38 39 41 44 46 48 51 54 56 58 58 59 56 46 32 24 23 25 27 28 31 33 32 29 27 26 25 25 25 25 25 26 27 28 28 27 27 28 30 32 33 34
37 35 37 42 48 48 46 46 41 42 42 41 41 42 43 44 46 48 49 50 50 50 49 45 36 26 22 26 30 32 33 33 31 30 28 27 27 26 26 26 26 28 29 29 30 30 28 28 29 32 33 34 34 35

GFSWCAN_prec_cthk_072.txt.gz
RH
89 92 93 93 96 96 96 94 90 91 94 96 90 87 93 98 98 98 95 98 97 98 84 74 73 70 73 77 72 67 72 65 69 62 56 62 64 54 55 60 67 76 89 82 81 82 77 65 62 64 61 59 57 58
94 94 95 96 90 91 82 84 92 98 88 94 98 92 92 98 98 99 90 94 95 98 97 85 74 73 64 65 72 71 63 63 61 58 58 57 64 58 55 62 67 74 67 78 76 74 66 63 65 69 64 62 60 54
94 96 97 93 92 84 90 98 97 95 96 99 98 97 92 96 95 90 86 92 96 96 99 92 82 78 76 74 76 73 64 67 65 56 65 68 71 59 60 52 53 67 70 70 64 60 55 58 65 65 70 66 62 56
96 97 90 90 88 89 95 94 93 94 95 98 98 97 93 92 90 81 78 80 90 95 98 86 83 86 83 81 76 74 73 70 71 66 64 64 68 75 71 53 46 48 56 63 62 61 61 61 65 67 67 72 69 67
97 95 85 95 95 91 94 86 98 96 95 94 98 95 97 96 93 95 85 81 87 92 94 80 84 84 79 76 77 79 80 75 73 77 64 65 69 76 86 69 53 49 57 68 65 53 53 60 59 63 56 69 80 71
97 98 87 88 94 95 96 85 89 94 98 98 97 98 97 99 98 98 99 99 98 98 94 97 90 82 81 81 83 84 77 76 77 89 70 73 76 78 88 76 60 58 59 62 59 47 52 53 56 58 61 56 67 62
98 98 87 86 93 94 99 95 88 87 89 94 97 99 96 96 99 95 84 85 98 95 90 96 94 84 82 91 93 94 93 88 84 86 76 72 75 74 94 96 82 69 62 58 55 54 47 45 53 60 64 70 67 64
98 97 96 94 95 94 96 98 98 97 94 95 95 96 96 97 99 98 94 94 90 86 85 89 92 91 91 91 88 83 78 71 66 69 71 84 93 89 90 97 89 72 63 64 55 51 45 47 55 57 59 58 54 57
97 98 98 94 95 98 98 96 95 95 98 95 99 99 99 98 99 99 99 95 90 84 79 86 88 94 87 86 85 82 76 72 64 70 69 76 97 98 86 84 97 82 69 65 58 53 49 46 52 53 55 56 53 54
99 96 98 96 96 98 98 99 97 98 98 98 98 98 98 99 98 98 98 94 86 78 77 88 90 90 91 91 90 83 78 78 77 74 76 86 95 93 94 93 99 95 87 76 64 63 60 59 61 64 62 61 59 58
98 98 97 97 96 96 96 97 96 95 91 90 92 91 94 92 89 87 89 87 83 78 73 75 77 80 76 86 85 84 94 91 89 87 87 93 94 94 92 97 99 96 90 86 80 73 68 64 62 61 59 57 56 55
97 97 97 96 94 94 94 91 89 87 83 79 76 77 78 78 75 78 82 76 74 82 79 81 78 69 69 76 82 91 97 97 95 89 86 85 83 85 88 88 93 97 97 97 94 81 74 72 70 68 67 64 64 63
95 95 93 87 85 88 89 88 87 82 75 71 68 74 75 75 76 77 77 78 81 84 86 85 80 71 60 75 85 96 93 92 97 98 90 81 79 79 79 78 85 89 90 91 88 87 81 73 69 69 69 69 70 68
80 81 80 81 78 82 86 86 81 77 76 74 74 78 78 81 84 84 84 86 83 89 90 80 70 63 62 76 91 96 95 95 95 92 86 81 79 79 81 81 85 86 84 85 84 81 75 71 75 78 79 81 82 82
63 64 65 60 58 63 72 72 70 72 72 74 74 83 87 87 86 85 84 80 78 80 84 81 78 75 80 88 90 91 88 90 86 92 90 87 84 87 91 90 86 81 82 86 82 79 76 84 87 88 91 93 94 94
72 72 72 66 65 63 61 60 59 61 64 68 75 84 85 81 82 77 72 73 72 76 85 93 92 96 94 91 87 90 85 93 96 95 94 95 95 95 96 96 94 92 89 87 83 86 91 95 96 96 97 97 97 97
71 67 68 69 68 64 66 65 61 65 74 77 79 77 81 81 78 74 71 71 69 75 91 94 93 95 97 96 94 96 96 97 96 96 96 97 96 96 97 97 95 96 93 90 95 97 96 96 97 97 96 97 97 97
85 81 77 73 68 63 59 57 61 77 88 89 86 83 75 74 74 72 72 71 71 79 91 95 90 93 95 93 94 93 92 93 93 95 94 96 97 97 96 96 97 96 94 95 96 96 96 97 97 97 97 97 97 97
88 92 93 87 82 79 77 73 71 80 87 90 90 86 82 76 71 72 72 78 81 87 88 86 88 88 86 88 89 92 89 89 92 95 94 97 97 97 97 98 98 97 97 97 97 96 97 97 97 97 97 97 97 97
95 96 92 88 86 83 85 86 85 81 87 87 90 89 84 78 73 75 81 87 89 89 90 87 85 93 93 89 87 87 87 89 90 93 95 96 97 98 97 97 97 97 97 97 97 97 97 98 98 98 97 97 93 88
95 87 85 84 82 82 87 90 93 94 95 94 94 89 82 80 82 85 84 83 83 85 88 88 80 78 76 76 77 76 77 77 77 77 79 80 84 85 87 89 91 94 95 96 97 97 98 98 97 92 85 76 68 64
76 63 52 48 43 48 56 59 60 65 65 68 71 70 72 72 71 72 71 69 64 63 64 64 64 65 66 67 67 70 71 73 74 75 75 76 78 80 82 85 86 86 86 87 87 86 81 74 66 61 59 59 56 53
41 35 30 30 33 39 46 45 43 48 49 44 41 43 44 40 38 35 43 49 52 55 56 58 60 62 63 64 66 69 72 75 76 77 79 83 85 86 87 87 88 87 83 78 72 69 67 66 62 56 52 49 44 40
28 29 32 34 36 42 38 39 38 38 38 40 41 44 45 43 37 39 48 52 54 55 56 59 60 62 63 64 66 69 72 76 76 77 80 85 87 87 85 81 80 76 74 69 64 61 55 52 51 47 42 39 37 33
20 30 30 35 35 34 35 37 37 35 40 39 41 45 47 40 45 50 52 52 54 54 54 56 58 61 63 64 65 69 74 77 77 81 86 85 77 73 72 73 71 66 64 57 53 49 45 42 39 37 33 30 27 25
30 35 37 37 37 36 38 41 39 41 41 42 44 42 39 41 46 50 50 52 54 56 57 59 62 65 67 69 71 74 76 76 75 72 70 68 65 60 55 52 50 51 49 46 40 37 34 30 27 24 23 24 24 23
35 37 36 36 34 31 34 34 34 36 41 43 44 44 42 44 45 43 45 50 54 56 57 60 64 66 66 67 70 68 64 61 58 56 56 57 54 50 47 41 38 36 37 36 33 30 26 23 22 21 21 22 22 24
35 34 35 32 30 29 32 33 35 37 39 40 38 42 42 44 42 42 45 47 51 56 58 61 66 67 67 70 70 68 64 61 61 59 55 50 43 39 35 33 32 30 29 27 26 24 23 23 23 22 22 22 23 25
29 26 23 28 27 31 35 36 37 37 38 40 40 41 41 41 43 44 46 50 55 58 59 62 67 69 68 65 62 59 55 50 41 39 38 37 36 32 31 31 31 30 28 26 25 24 24 24 23 23 23 26 27 26
30 26 25 30 34 38 37 35 35 35 37 37 37 41 43 45 46 47 50 52 55 58 62 65 67 69 67 60 48 43 43 43 43 41 42 42 39 34 34 34 32 29 26 25 24 24 23 24 24 26 28 27 27 28
28 26 28 33 38 40 40 39 39 39 38 38 37 36 39 43 46 48 49 51 55 58 62 63 65 65 57 45 38 34 31 29 29 30 31 33 33 31 29 27 26 26 25 24 24 25 25 25 28 29 28 28 29 31
29 28 32 39 43 44 48 48 47 42 41 38 38 37 40 40 42 43 47 49 52 54 55 55 55 46 32 22 21 24 27 30 32 33 33 31 28 27 26 26 27 27 27 27 28 27 27 30 30 29 30 31 32 33
34 34 35 40 48 50 50 49 44 45 43 42 42 42 40 40 42 44 45 49 51 53 53 50 43 33 29 32 34 35 34 34 32 31 30 29 28 28 27 27 26 28 30 31 29 30 31 31 30 31 32 33 33 34

GFSWCAN_prec_cthk_078.txt.gz
RH
75 83 90 93 94 93 91 92 95 93 91 92 91 93 91 88 87 88 83 96 97 97 96 92 87 86 88 85 84 84 91 90 89 92 88 84 76 66 57 54 73 83 85 86 86 84 77 55 60 75 76 66 65 69
88 92 96 96 89 83 84 90 89 91 88 88 91 95 97 98 96 95 90 87 98 99 97 97 94 88 80 79 79 84 80 82 78 80 78 75 74 72 62 60 49 65 68 75 72 69 60 62 71 66 71 77 68 68
95 97 98 97 83 82 87 93 94 88 86 86 85 93 98 98 98 96 88 87 96 98 96 97 92 86 87 86 85 82 79 79 75 71 74 73 69 64 66 64 49 39 53 60 56 49 61 64 55 56 76 70 68 65
98 98 91 87 93 98 93 85 81 81 87 95 97 96 99 98 99 98 85 79 82 83 86 84 88 88 85 87 83 83 83 80 78 77 75 74 73 64 66 59 58 53 49 50 50 49 49 55 60 63 72 69 67 65
95 92 91 91 89 85 85 79 80 80 90 98 99 97 96 98 98 97 95 89 87 86 82 71 80 79 80 80 80 83 82 80 80 82 80 77 76 74 70 66 61 53 52 54 55 52 58 60 62 61 58 60 57 58
94 92 95 90 84 86 84 89 84 88 98 99 98 93 95 98 96 95 99 97 90 85 84 84 73 80 80 78 83 83 82 82 81 82 79 80 80 77 78 73 67 60 56 55 57 57 49 56 64 61 62 63 64 56
94 91 90 92 88 93 89 89 86 92 97 99 98 97 98 95 94 93 86 80 85 86 81 88 82 82 91 91 93 90 87 90 90 92 86 84 84 82 84 82 75 68 62 61 63 66 57 58 71 68 64 72 67 66
95 92 88 93 95 95 93 90 93 95 96 97 98 99 99 98 97 98 91 82 83 84 95 98 96 95 93 98 98 99 97 97 96 91 95 93 93 90 91 83 78 74 67 66 67 78 78 68 67 74 73 76 73 67
97 90 93 94 94 99 96 95 92 91 92 95 97 97 97 99 98 96 89 86 89 92 96 95 99 96 85 97 96 95 92 91 90 89 93 93 97 95 84 84 81 76 76 73 79 78 82 84 77 78 77 77 82 77
97 94 92 98 97 93 96 97 98 99 98 94 95 93 94 88 89 93 96 96 96 96 96 98 93 88 85 85 91 92 86 89 88 89 91 92 89 88 87 86 85 74 69 75 85 85 86 91 90 88 86 88 85 84
98 97 94 95 97 96 96 96 97 96 93 91 97 98 99 97 98 98 98 97 98 98 98 98 91 90 88 88 90 86 91 88 87 87 88 86 81 80 83 82 81 71 69 78 88 92 88 89 90 92 88 87 82 79
92 97 97 94 96 94 96 98 98 97 98 94 93 94 96 89 84 81 88 92 91 92 96 95 93 92 90 92 89 92 93 93 95 93 91 85 80 80 79 81 80 72 70 72 86 94 95 96 97 97 94 90 88 87
90 90 90 91 93 91 90 89 92 95 96 87 81 77 81 78 81 81 90 88 87 87 88 89 87 89 90 92 92 96 96 97 94 93 88 86 83 82 83 83 84 84 79 76 86 93 91 97 98 99 98 97 93 89
90 88 87 88 88 87 82 78 75 77 78 77 74 76 78 77 80 82 81 82 81 81 80 80 80 80 81 87 93 95 96 94 93 88 89 91 91 90 94 91 89 91 89 86 94 94 88 85 94 98 96 95 89 87
86 85 85 86 89 83 77 73 66 63 62 68 72 80 83 83 82 81 82 82 82 80 81 82 83 82 83 84 88 89 90 91 89 91 93 96 97 97 97 95 95 94 97 97 94 89 87 88 85 91 95 96 94 93
76 79 83 83 84 80 77 71 65 61 64 67 70 76 79 79 79 80 83 82 82 83 81 81 83 81 83 83 80 90 90 93 92 92 93 96 96 96 96 97 94 94 96 95 92 91 91 90 89 92 94 96 97 97
67 68 75 78 75 74 70 65 62 65 70 75 82 84 85 83 83 84 86 89 91 87 88 84 84 86 85 81 84 89 92 91 95 97 97 97 97 98 97 96 93 93 93 93 91 86 85 87 87 91 96 97 98 97
74 73 71 66 68 68 64 61 62 68 80 82 86 89 91 89 87 87 79 73 80 85 88 92 90 94 97 96 95 95 97 97 96 95 94 93 97 97 96 96 96 96 95 96 98 96 96 96 96 97 98 98 98 98
74 73 70 67 66 64 64 64 61 73 79 83 83 82 84 83 74 72 69 73 80 83 88 90 94 96 97 97 97 96 95 96 97 97 96 97 97 96 97 98 98 98 97 97 97 98 98 98 98 97 97 97 97 97
87 83 76 73 72 74 82 82 76 74 76 78 80 77 75 71 70 69 69 76 81 87 91 93 96 97 97 96 93 91 88 87 86 86 88 89 91 92 94 95 96 96 97 98 98 98 98 98 97 97 98 95 88 79
84 81 77 74 73 74 77 78 75 78 76 74 72 71 67 68 71 74 77 78 86 93 95 96 90 78 72 70 70 69 68 68 69 69 71 74 76 77 80 84 87 88 89 90 92 95 98 98 94 86 79 73 68 65
77 76 76 74 76 76 76 77 72 73 70 69 72 69 75 81 82 83 81 82 79 70 65 64 63 61 59 58 58 60 61 63 64 66 68 71 74 76 76 78 81 86 87 88 90 87 84 78 76 71 65 63 61 57
58 60 62 67 70 75 87 87 80 79 77 79 73 70 63 57 53 50 53 54 55 55 56 56 55 55 56 58 60 62 64 66 66 67 69 72 75 76 76 79 84 85 82 76 75 72 70 70 68 62 59 55 51 49
33 33 31 31 33 42 39 41 39 41 41 42 41 43 40 37 34 37 45 49 50 53 54 55 56 57 59 60 63 65 67 67 67 70 73 76 76 77 79 81 78 74 73 72 71 71 69 64 61 56 51 48 45 40
23 31 29 31 28 29 33 35 34 35 39 40 42 45 41 36 41 47 49 50 52 54 56 56 57 58 60 62 64 66 67 68 71 74 76 73 72 72 72 71 67 65 64 63 62 61 58 54 52 49 44 41 40 37
30 34 32 33 31 31 33 34 35 38 39 42 43 40 37 39 44 48 51 53 53 55 57 57 58 59 62 65 66 67 68 70 72 68 64 62 61 62 61 59 56 55 53 49 47 47 46 45 41 38 37 35 34 33
34 35 32 31 29 27 30 30 30 32 37 40 40 41 38 43 44 46 49 52 53 56 58 58 58 59 61 64 61 57 53 54 54 56 56 56 55 53 52 52 52 50 48 44 43 40 38 36 35 33 32 31 30 29
32 30 29 27 24 23 27 30 33 36 38 38 36 39 41 42 43 45 48 49 51 53 55 57 57 57 57 59 60 58 56 54 54 56 53 49 46 42 40 39 36 33 32 31 29 29 29 28 28 29 30 30 29 28
27 23 20 26 25 27 30 32 35 36 36 36 37 42 42 42 43 45 47 49 50 53 54 56 58 60 60 59 56 56 55 55 53 49 45 44 43 37 35 35 35 34 33 31 30 30 29 29 29 29 29 27 26 27
25 26 28 29 32 35 36 36 34 34 34 35 36 40 42 43 44 45 46 47 48 50 53 56 59 61 62 55 50 45 42 40 37 35 34 35 35 32 32 32 31 31 30 29 28 28 27 27 28 28 27 28 28 30
31 30 32 34 39 41 40 37 36 36 36 37 36 36 37 40 42 44 44 45 46 48 50 53 55 56 52 43 34 28 26 26 26 27 29 31 33 33 32 30 29 28 29 28 28 28 28 29 28 28 28 30 33 34
34 31 32 40 45 45 43 41 39 39 39 38 37 36 37 37 38 39 41 43 46 48 50 51 53 49 40 29 27 31 34 34 35 35 34 33 31 30 28 28 29 29 29 29 30 31 32 31 30 31 34 34 34 34
34 34 37 39 43 45 44 43 40 41 40 40 40 39 38 37 36 36 38 43 46 49 52 53 50 42 31 31 32 32 33 33 33 32 32 31 30 30 29 29 29 29 32 34 36 36 35 34 33 33 33 35 38 39

GFSWCAN_prec_cthk_081.txt.gz
RH
56 60 78 88 90 90 92 92 88 88 93 95 94 96 94 79 63 76 95 98 99 98 97 91 86 84 91 91 93 92 97 98 97 95 92 91 85 74 65 55 75 92 92 85 86 92 87 74 71 81 80 73 76 77
61 91 97 96 95 96 95 91 83 84 88 90 95 98 98 98 82 76 81 95 98 98 97 96 93 86 78 79 84 89 84 87 88 90 88 84 84 82 68 61 49 59 73 88 85 84 76 76 72 74 79 78 76 76
98 98 95 90 87 87 87 87 91 93 87 97 96 98 97 99 98 89 90 92 95 98 97 97 96 90 86 85 86 83 87 86 85 83 86 85 82 74 75 64 56 51 57 63 62 68 62 53 60 63 71 69 72 78
98 95 92 91 84 84 82 82 83 85 92 97 98 95 97 99 98 99 92 91 97 97 98 89 91 93 91 88 87 86 88 87 85 86 86 84 80 75 74 66 62 54 47 45 49 43 43 47 52 57 61 66 65 57
97 95 89 89 86 87 87 85 84 83 81 83 96 95 90 95 99 99 97 95 94 92 95 88 84 81 84 86 86 86 92 92 89 92 91 86 82 81 81 75 69 63 58 55 50 51 49 42 44 50 59 62 61 62
95 92 91 91 97 87 80 80 85 84 88 89 93 96 96 98 99 98 99 99 98 95 93 93 85 88 85 77 84 89 90 93 91 92 90 85 84 82 82 74 75 73 69 65 59 56 52 46 45 47 59 57 61 65
97 96 92 99 94 90 86 87 90 91 99 98 97 98 97 99 96 98 86 80 90 96 91 85 84 75 85 81 79 85 90 90 91 90 87 85 84 81 87 83 80 76 73 69 66 61 56 58 57 54 56 67 69 70
96 97 96 98 97 90 88 89 92 94 97 98 99 98 99 99 99 99 93 87 92 93 90 88 89 84 76 83 81 85 87 90 91 91 91 89 90 88 87 82 82 80 78 76 74 69 61 58 61 66 63 72 79 80
97 96 94 97 98 94 89 92 98 93 97 98 98 98 99 99 97 95 92 94 95 91 86 93 98 93 78 87 92 93 94 97 97 97 95 94 94 90 82 82 83 83 81 77 77 73 70 67 69 76 73 69 77 88
97 94 90 91 97 98 96 93 98 98 98 98 98 97 98 98 94 95 99 98 96 94 94 95 93 97 91 98 99 99 98 98 98 97 95 88 84 83 82 83 84 83 82 80 74 69 71 74 74 81 85 84 84 85
98 93 91 91 95 97 98 95 94 92 92 89 90 89 97 98 96 97 96 96 96 98 92 90 97 99 95 96 98 95 96 93 90 87 85 83 81 81 84 84 83 82 83 84 83 73 74 77 80 82 88 92 94 91
97 94 92 91 93 96 98 95 97 96 92 92 92 97 97 96 93 94 96 96 94 96 98 98 94 97 97 95 90 89 87 82 80 81 82 80 78 79 79 80 79 77 77 79 80 77 76 79 87 92 93 92 94 97
93 88 93 90 92 93 94 92 89 96 96 93 88 85 82 83 88 92 97 96 96 94 95 92 94 90 89 91 92 93 86 86 84 86 83 82 85 84 85 84 83 83 82 81 80 81 75 76 88 96 95 96 98 98
89 90 90 89 84 88 85 82 82 82 77 74 75 83 80 85 86 87 89 91 92 92 92 90 88 88 88 87 91 86 88 90 93 91 88 88 90 90 89 89 91 92 92 89 87 84 84 83 86 94 96 97 97 97
83 83 85 90 85 82 78 75 70 62 60 65 69 78 83 82 84 86 87 89 90 91 89 89 86 84 86 88 92 93 94 96 94 92 89 90 91 90 92 94 95 93 94 93 93 92 91 91 94 95 96 92 91 92
81 80 85 85 82 78 73 70 67 65 68 69 71 78 82 83 84 87 88 88 86 86 84 81 82 83 87 87 89 95 88 90 90 91 93 93 91 95 96 96 96 96 95 97 96 96 92 95 98 97 95 93 91 93
76 83 83 80 76 73 69 62 60 63 68 72 79 81 83 85 87 87 89 89 88 85 86 82 84 82 76 76 82 85 84 89 94 92 91 96 97 96 96 97 97 97 96 96 96 97 97 98 98 97 94 92 92 92
66 71 79 78 75 67 62 57 58 67 75 79 82 84 84 84 86 85 88 89 86 84 81 87 85 89 93 94 90 86 89 94 93 94 96 97 97 96 97 97 97 97 97 97 97 97 98 98 98 97 96 96 95 96
75 71 69 68 68 64 62 63 63 75 83 85 87 87 89 87 88 83 75 78 83 84 85 87 92 95 97 97 98 97 96 97 97 97 97 96 95 96 97 98 97 97 98 98 98 98 98 98 98 98 98 98 98 98
81 77 72 67 62 60 63 68 67 71 80 80 78 79 80 72 69 68 72 77 78 85 89 93 96 96 94 90 87 83 80 79 78 77 77 76 78 77 77 79 82 87 94 97 98 97 97 97 98 98 98 95 88 82
83 81 79 74 74 75 76 72 72 72 75 76 74 71 66 67 71 73 74 78 81 91 93 90 82 73 70 69 69 70 69 70 68 68 67 67 71 73 75 76 76 76 79 83 87 89 93 96 93 88 84 78 75 73
76 73 71 67 68 67 69 71 67 67 68 73 73 68 74 78 79 79 74 74 74 70 66 64 65 65 63 60 58 59 61 63 65 65 66 67 69 73 76 77 78 79 82 86 86 82 77 75 72 70 71 69 66 63
75 72 69 67 62 64 73 70 67 65 64 72 76 76 71 64 57 49 55 57 58 58 56 56 56 57 58 59 59 61 62 65 66 67 68 70 73 77 77 77 79 83 85 82 80 75 74 72 69 68 65 62 60 57
47 52 55 55 60 70 69 73 72 66 57 52 48 47 44 39 37 40 48 51 53 54 56 57 57 58 59 60 62 64 66 68 68 69 71 74 77 77 77 78 78 79 77 75 72 71 71 68 63 60 59 54 51 49
26 32 32 36 32 32 34 35 35 34 39 39 40 42 40 36 41 47 51 53 54 55 57 58 58 59 60 62 64 66 68 68 69 71 74 74 71 70 69 69 68 65 63 61 58 58 58 57 54 51 50 50 48 45
30 33 31 31 30 30 33 34 36 37 37 40 41 38 36 38 44 48 50 53 54 56 58 59 59 60 61 63 66 67 67 67 64 62 63 61 58 56 57 56 55 55 53 52 51 49 48 48 47 45 42 40 39 38
33 35 32 31 29 27 30 31 31 32 36 39 40 39 36 42 44 45 49 51 51 54 56 57 58 59 60 59 56 54 53 53 53 54 55 56 57 55 51 50 50 49 48 45 44 43 41 38 37 36 35 33 32 32
31 28 27 25 24 24 27 30 32 34 36 37 35 39 40 41 42 45 48 49 51 52 53 54 54 54 54 56 57 57 57 57 56 54 54 53 50 47 44 40 37 35 34 33 32 31 31 31 31 31 32 33 33 32
26 22 20 25 26 27 30 32 33 34 35 35 37 41 41 42 43 45 47 48 48 49 50 53 55 55 55 54 52 52 53 52 51 49 46 44 42 39 38 37 36 35 34 33 32 31 31 31 31 31 32 31 30 29
24 22 24 29 34 34 33 33 34 36 36 35 36 39 41 43 44 45 45 44 44 45 48 51 53 56 56 49 45 41 37 33 28 27 27 28 29 30 30 31 31 31 30 29 29 28 28 29 30 31 30 29 29 30
24 24 29 34 40 40 38 38 38 38 37 37 36 36 39 41 42 41 40 41 43 45 47 49 51 52 49 41 32 26 27 30 32 34 35 36 36 35 33 32 30 30 30 30 30 30 30 31 31 31 30 30 31 34
27 32 35 43 45 43 43 42 42 41 41 39 40 39 39 39 38 36 37 39 42 44 46 49 51 51 40 30 30 31 32 32 33 33 34 34 33 31 30 30 30 30 30 30 32 34 35 35 34 32 33 34 35 35
35 36 40 41 43 44 44 44 42 42 41 42 43 41 39 36 36 35 37 39 41 44 46 49 50 43 34 33 35 34 34 34 34 33 32 32 32 32 31 31 32 33 36 38 39 40 40 38 35 33 33 35 38 40

GFSWCAN_prec_cthk_084.txt.gz
RH
61 68 75 82 87 91 93 91 92 91 91 92 93 93 89 81 68 70 91 97 94 86 77 74 80 80 83 89 92 95 98 98 99 98 92 85 78 72 68 58 82 94 77 65 77 92 76 63 68 82 93 92 87 90
85 89 95 93 89 88 88 89 91 93 95 91 90 93 98 95 89 81 72 96 98 94 91 84 80 84 87 87 88 95 86 93 93 92 86 83 89 83 72 68 50 69 90 96 78 69 74 73 81 83 81 83 76 77
93 96 92 89 87 81 78 77 80 85 88 87 86 90 94 98 98 94 79 79 98 97 94 89 84 83 87 90 92 90 92 94 92 89 90 89 85 75 78 66 58 49 54 72 77 82 82 81 78 72 69 66 72 75
96 93 88 83 80 80 80 80 80 82 84 87 95 95 96 97 98 98 88 70 88 98 96 88 82 85 87 85 90 92 92 92 93 94 95 93 84 74 76 70 61 56 55 51 51 55 62 68 65 56 62 63 66 65
96 93 86 86 91 90 84 78 76 77 83 85 89 98 98 99 98 99 98 89 84 91 95 87 88 83 84 85 91 94 96 94 95 97 96 89 80 81 75 72 66 64 63 60 58 60 53 43 45 41 46 49 62 65
95 91 97 94 91 82 74 76 79 81 82 83 88 98 99 98 99 99 99 98 95 94 95 88 84 88 89 89 89 94 95 97 98 98 96 89 85 83 86 78 83 78 72 69 65 60 56 53 52 48 46 46 51 66
96 94 95 95 87 79 85 84 81 80 87 88 89 99 98 98 95 92 87 85 92 96 96 88 87 82 85 84 88 93 96 98 98 97 96 91 89 85 92 86 83 76 74 73 71 69 66 63 58 54 53 53 53 62
96 96 93 93 89 94 90 93 98 98 97 97 98 98 99 98 99 98 90 86 92 95 94 86 82 88 91 90 85 85 97 99 98 97 93 90 90 87 88 80 78 77 77 76 75 73 72 69 66 59 61 62 63 66
95 92 93 96 98 98 93 96 95 96 96 98 97 97 98 99 99 97 94 94 92 94 88 84 84 84 92 99 96 90 89 96 95 96 95 95 97 91 85 83 79 78 77 77 76 75 75 74 71 70 68 67 71 75
95 92 95 97 94 97 99 98 97 97 97 98 98 97 99 97 95 97 99 97 98 97 89 82 91 92 92 85 88 87 89 92 93 93 96 95 94 88 86 83 81 79 79 77 75 74 75 72 69 70 76 73 80 79
95 94 95 97 97 96 97 97 96 94 93 91 92 93 98 99 97 96 96 97 95 93 83 86 91 94 94 82 88 98 98 96 95 97 98 94 83 77 76 75 75 75 77 80 81 79 80 82 79 73 77 80 80 84
95 97 98 97 98 96 96 93 87 83 82 83 81 85 90 90 92 94 93 98 96 97 96 93 93 93 98 96 95 97 98 96 96 97 96 85 74 74 73 74 75 75 76 77 79 77 77 80 84 83 81 79 82 85
92 96 98 97 93 94 90 95 91 86 85 83 84 86 89 91 92 90 93 94 95 96 97 96 98 99 98 96 98 97 97 96 90 92 84 73 75 75 77 78 78 78 77 77 77 77 77 78 82 84 76 83 86 90
89 93 92 91 87 85 77 89 91 89 87 79 80 86 85 88 90 88 90 93 96 98 96 96 95 96 96 95 96 93 92 90 88 82 80 81 80 84 86 87 86 85 85 86 88 89 88 85 86 86 81 80 92 97
84 86 89 87 84 77 74 72 73 72 69 72 71 81 83 87 91 92 96 97 98 98 97 96 91 89 90 92 91 91 91 89 85 84 87 89 88 85 84 85 87 88 89 90 94 96 97 96 93 90 89 87 89 94
86 87 87 81 78 75 71 66 65 63 67 71 75 79 80 82 85 89 93 96 96 96 91 85 86 87 89 85 88 93 89 89 90 92 93 92 89 86 87 88 90 92 94 95 95 96 97 97 97 94 93 93 92 97
81 86 84 81 74 68 67 64 64 68 70 74 81 84 84 85 87 89 89 89 89 86 84 81 81 86 79 82 83 85 87 90 91 89 91 88 86 87 89 91 93 94 96 97 96 96 97 97 97 95 97 97 97 97
76 80 81 77 75 67 59 58 63 67 74 78 80 83 85 85 85 86 87 85 85 84 81 83 79 81 90 90 89 83 81 86 85 88 92 90 88 91 92 92 92 93 96 97 98 97 97 97 97 97 97 98 98 98
70 73 75 73 66 61 61 61 63 71 77 80 82 84 85 86 88 90 87 85 86 83 85 89 90 93 94 96 97 97 96 93 95 95 92 87 86 84 82 82 82 84 87 91 95 97 98 98 98 98 98 98 98 98
72 74 73 70 66 62 62 65 64 70 79 83 84 85 87 87 81 79 83 85 84 87 91 91 92 87 84 82 81 80 80 78 76 75 76 75 75 74 75 77 78 79 79 77 78 82 87 91 96 98 98 98 92 88
80 74 69 64 63 62 67 70 71 76 79 79 81 76 70 71 73 75 80 80 84 89 88 80 75 71 68 68 68 69 69 70 71 70 71 70 71 71 73 75 78 78 78 79 81 83 86 88 85 81 76 75 75 75
83 79 73 66 63 66 73 72 73 74 74 74 71 68 72 79 80 78 74 73 73 68 68 66 65 63 62 62 63 64 65 66 68 68 69 69 70 72 76 78 78 79 81 83 86 87 84 79 76 74 71 69 69 67
69 69 68 66 66 69 77 70 67 69 69 75 78 77 73 62 54 51 53 54 55 56 56 55 56 57 58 58 59 60 61 63 65 67 69 69 71 74 78 78 78 80 84 87 84 81 77 74 72 70 71 69 64 61
56 54 55 59 61 63 59 58 59 66 70 64 52 47 44 41 40 44 49 51 54 55 57 57 58 58 58 59 60 61 62 64 66 67 68 69 72 75 77 77 77 79 81 78 73 69 65 65 64 62 61 60 57 53
44 52 53 54 55 56 60 61 50 42 42 40 40 41 41 39 43 46 50 51 53 55 55 56 57 57 58 59 60 62 64 65 66 66 68 70 72 69 66 66 66 66 65 64 61 56 54 54 53 50 49 48 47 46
41 47 44 42 40 35 34 36 37 38 37 38 38 36 36 38 42 47 47 50 52 53 55 56 57 58 57 58 58 61 63 63 61 60 59 59 59 62 62 62 61 56 55 54 54 53 51 49 47 46 45 43 42 41
31 32 30 29 28 27 30 31 30 31 35 38 38 35 34 37 42 44 49 50 51 52 53 54 54 54 56 53 52 51 51 52 54 55 55 54 55 56 55 56 55 50 49 47 45 44 43 41 38 37 36 35 34 33
28 26 24 25 25 25 26 27 29 33 35 33 32 39 38 38 41 45 47 48 48 49 48 48 49 48 49 50 50 50 50 50 52 52 52 51 49 48 46 43 41 39 40 38 37 36 35 34 34 34 35 36 35 34
25 24 20 24 24 26 29 31 33 34 35 35 36 41 40 41 42 44 44 45 43 43 44 46 48 48 48 48 46 46 45 42 40 39 37 37 35 32 31 31 30 30 30 30 29 29 29 29 29 30 31 33 32 30
24 24 22 25 29 35 33 33 34 35 36 36 37 40 42 43 43 43 43 41 42 43 44 46 48 49 47 44 40 37 32 27 26 28 33 35 35 35 36 36 36 35 33 31 30 29 29 30 31 32 33 33 31 30
24 24 25 30 35 38 39 38 38 37 37 40 40 40 42 43 43 40 38 39 41 42 43 45 47 47 43 38 31 31 33 32 31 31 32 33 33 33 32 31 30 30 31 31 31 31 32 33 34 35 34 33 32 33
30 26 27 32 40 42 42 42 41 43 43 43 44 42 42 43 40 37 37 39 41 42 42 43 45 44 34 29 29 31 33 35 34 34 33 32 32 32 32 31 32 32 32 32 34 37 39 40 39 38 36 36 36 36
34 31 34 39 44 44 42 43 42 44 45 46 46 44 42 39 38 36 38 39 41 41 41 42 42 37 30 28 29 31 35 40 40 37 33 32 32 33 34 34 36 39 41 42 43 42 41 40 38 35 35 35 37 39